TimeCST,TemperatureF,Dew PointF,Humidity,Sea Level PressureIn,VisibilityMPH,Wind Direction,Wind SpeedMPH,Gust SpeedMPH,PrecipitationIn,Events,Conditions,WindDirDegrees,DateUTC
12:51 AM,37.4,30.2,75,29.71,10.0,SW,9.2,-,N/A,Rain,Light Rain,230,2014-01-16 06:51:00
12:58 AM,38.8,30.6,72,29.74,10.0,SW,10.4,-,0.00,Rain,Light Rain,230,2014-01-16 06:58:00
1:01 AM,41.0,32.0,70,29.71,10.0,WSW,6.9,-,N/A,,Clear,240,2014-01-16 07:01:00
1:58 AM,37.9,30.9,76,29.75,10.0,West,4.6,-,0.00,,Clear,260,2014-01-16 07:58:00
2:58 AM,39.9,29.5,66,29.75,10.0,WNW,9.2,-,N/A,,Scattered Clouds,300,2014-01-16 08:58:00
3:58 AM,37.9,28.2,68,29.75,10.0,WNW,9.2,-,N/A,,Clear,290,2014-01-16 09:58:00
4:58 AM,42.4,24.8,50,29.75,10.0,WNW,19.6,24.2,N/A,,Mostly Cloudy,290,2014-01-16 10:58:00
5:58 AM,41.2,22.6,48,29.77,10.0,WNW,19.6,27.6,N/A,,Mostly Cloudy,300,2014-01-16 11:58:00
6:58 AM,40.6,21.9,47,29.78,10.0,WNW,23.0,31.1,N/A,,Mostly Cloudy,300,2014-01-16 12:58:00
7:58 AM,40.5,20.3,45,29.80,10.0,NW,16.1,27.6,N/A,,Partly Cloudy,310,2014-01-16 13:58:00
8:58 AM,41.5,20.3,43,29.80,10.0,WNW,19.6,28.8,N/A,,Partly Cloudy,290,2014-01-16 14:58:00
9:58 AM,43.0,19.8,40,29.83,10.0,WNW,31.1,38.0,N/A,,Scattered Clouds,300,2014-01-16 15:58:00
10:58 AM,42.8,20.3,41,29.82,10.0,NW,31.1,43.7,N/A,,Mostly Cloudy,310,2014-01-16 16:58:00
11:53 AM,42.8,19.4,39,29.78,10.0,WNW,27.6,39.1,N/A,Rain,Light Rain,300,2014-01-16 17:53:00
11:58 AM,41.9,19.4,41,29.82,10.0,WNW,28.8,36.8,0.00,Rain,Light Rain,300,2014-01-16 17:58:00
12:04 PM,42.8,21.2,42,29.77,10.0,WNW,25.3,36.8,N/A,,Mostly Cloudy,290,2014-01-16 18:04:00
12:16 PM,42.8,21.2,42,29.77,8.0,WNW,29.9,36.8,N/A,,Unknown,300,2014-01-16 18:16:00
12:26 PM,41.0,21.2,45,29.77,10.0,WNW,27.6,40.3,N/A,,Overcast,300,2014-01-16 18:26:00
12:45 PM,41.0,21.2,45,29.76,10.0,WNW,28.8,36.8,N/A,,Unknown,300,2014-01-16 18:45:00
12:58 PM,41.0,21.2,45,29.79,10.0,WNW,25.3,41.4,0.00,,Mostly Cloudy,290,2014-01-16 18:58:00
1:58 PM,41.5,16.7,37,29.78,10.0,WNW,27.6,38.0,0.00,,Partly Cloudy,300,2014-01-16 19:58:00
2:27 PM,41.0,19.4,42,29.75,10.0,NW,29.9,41.4,N/A,,Unknown,310,2014-01-16 20:27:00
2:41 PM,41.0,19.4,42,29.76,7.0,NW,39.1,54.1,N/A,,Unknown,310,2014-01-16 20:41:00
2:52 PM,39.2,19.4,45,29.77,7.0,NW,33.4,51.8,N/A,,Unknown,310,2014-01-16 20:52:00
2:58 PM,39.2,21.2,49,29.81,5.0,NW,36.8,50.6,0.00,,Unknown,310,2014-01-16 20:58:00
3:08 PM,37.4,23.0,56,29.81,10.0,NNW,35.7,48.3,N/A,,Partly Cloudy,330,2014-01-16 21:08:00
3:58 PM,30.9,10.9,43,29.90,10.0,NW,34.5,46.0,0.00,,Clear,310,2014-01-16 21:58:00
4:58 PM,24.4,5.5,45,29.98,10.0,NNW,34.5,44.9,N/A,,Scattered Clouds,330,2014-01-16 22:58:00
5:58 PM,20.3,5.7,53,30.01,10.0,NNW,20.7,34.5,N/A,,Partly Cloudy,330,2014-01-16 23:58:00
6:12 PM,19.4,6.8,58,30.04,8.0,NNW,17.3,26.5,N/A,Snow,Light Snow,330,2014-01-17 00:12:00
6:28 PM,17.6,8.6,68,30.01,9.0,NNW,21.9,33.4,N/A,Snow,Light Snow,330,2014-01-17 00:28:00
6:46 PM,17.6,8.6,68,30.02,8.0,NNW,25.3,40.3,N/A,Snow,Light Snow,330,2014-01-17 00:46:00
6:58 PM,17.2,9.1,71,30.08,5.0,NW,21.9,29.9,0.00,Snow,Light Snow,320,2014-01-17 00:58:00
7:03 PM,17.6,8.6,68,30.03,4.0,NNW,21.9,29.9,N/A,Snow,Light Snow,330,2014-01-17 01:03:00
7:08 PM,15.8,8.6,73,30.03,5.0,NW,26.5,32.2,N/A,Snow,Light Snow,320,2014-01-17 01:08:00
7:18 PM,15.8,8.6,73,30.03,10.0,NW,18.4,32.2,N/A,Snow,Light Snow,320,2014-01-17 01:18:00
7:28 PM,15.8,8.6,73,30.03,7.0,NNW,20.7,34.5,N/A,Snow,Light Snow,330,2014-01-17 01:28:00
7:33 PM,15.8,8.6,73,30.03,5.0,NW,21.9,32.2,N/A,Snow,Light Snow,320,2014-01-17 01:33:00
7:43 PM,15.8,8.6,73,30.03,6.0,NW,26.5,34.5,N/A,Snow,Light Snow,320,2014-01-17 01:43:00
7:48 PM,15.8,6.8,68,30.03,9.0,NW,24.2,34.5,N/A,Snow,Light Snow,320,2014-01-17 01:48:00
7:58 PM,15.8,7.9,71,30.09,7.0,NW,26.5,36.8,0.00,Snow,Light Snow,320,2014-01-17 01:58:00
8:28 PM,15.8,8.6,73,30.04,6.0,NW,20.7,28.8,N/A,Snow,Light Snow,320,2014-01-17 02:28:00
8:58 PM,16.0,10.2,78,30.10,6.0,NW,18.4,27.6,0.00,Snow,Light Snow,320,2014-01-17 02:58:00
9:08 PM,15.8,10.4,79,30.05,10.0,NW,16.1,26.5,N/A,Snow,Light Snow,320,2014-01-17 03:08:00
9:18 PM,15.8,10.4,79,30.05,8.0,NW,17.3,21.9,N/A,Snow,Light Snow,320,2014-01-17 03:18:00
9:38 PM,15.8,10.4,79,30.06,10.0,NW,10.4,21.9,N/A,Snow,Light Snow,320,2014-01-17 03:38:00
9:48 PM,15.8,10.4,79,30.06,9.0,NW,11.5,20.7,N/A,Snow,Light Snow,310,2014-01-17 03:48:00
9:53 PM,15.8,10.4,79,30.06,9.0,NW,9.2,-,N/A,Snow,Light Snow,320,2014-01-17 03:53:00
9:58 PM,16.7,10.9,78,30.11,9.0,NW,16.1,-,0.00,Snow,Light Snow,320,2014-01-17 03:58:00
10:03 PM,17.6,10.4,73,30.06,10.0,NW,16.1,23.0,N/A,Snow,Light Snow,320,2014-01-17 04:03:00
10:14 PM,17.6,6.8,63,30.06,10.0,NNW,20.7,28.8,N/A,,Mostly Cloudy,330,2014-01-17 04:14:00
10:58 PM,17.1,4.8,59,30.12,10.0,NW,27.6,36.8,0.00,,Mostly Cloudy,320,2014-01-17 04:58:00
11:58 PM,15.4,4.8,63,30.11,10.0,NW,15.0,24.2,N/A,,Clear,320,2014-01-17 05:58:00